QPF
0.00 0.00 0.00 0.01 0.01 0.01 0.02 0.04 0.04 0.04 0.04 0.04 0.02 0.02 0.02 0.01 0.02 0.02 0.01 0.01 0.00 0.00 0.00 0.00 0.00 0.00 0.01 0.00 0.00 0.00 0.00 0.00 0.00 0.00 0.00 0.00 0.00 0.00 0.00 0.00 0.00 0.00 0.00 0.00 0.00 0.00 0.00 0.00 0.01
0.00 0.00 0.01 0.01 0.01 0.01 0.03 0.04 0.02 0.01 0.02 0.05 0.03 0.01 0.02 0.02 0.03 0.01 0.01 0.00 0.00 0.00 0.00 0.00 0.00 0.00 0.00 0.00 0.00 0.00 0.00 0.00 0.01 0.01 0.00 0.00 0.00 0.00 0.00 0.00 0.00 0.00 0.00 0.00 0.00 0.00 0.00 0.00 0.01
0.00 0.00 0.01 0.01 0.01 0.01 0.03 0.03 0.02 0.01 0.01 0.02 0.02 0.01 0.02 0.02 0.02 0.02 0.01 0.01 0.01 0.00 0.00 0.00 0.00 0.00 0.00 0.00 0.00 0.00 0.00 0.01 0.01 0.01 0.00 0.00 0.01 0.01 0.00 0.00 0.00 0.00 0.00 0.00 0.00 0.00 0.00 0.00 0.01
0.00 0.00 0.00 0.01 0.01 0.01 0.01 0.01 0.01 0.01 0.01 0.01 0.01 0.03 0.03 0.03 0.06 0.06 0.02 0.01 0.01 0.00 0.00 0.00 0.00 0.00 0.00 0.00 0.00 0.00 0.01 0.01 0.01 0.01 0.01 0.01 0.01 0.01 0.01 0.01 0.01 0.01 0.01 0.01 0.00 0.00 0.00 0.00 0.00
0.00 0.00 0.00 0.01 0.01 0.01 0.01 0.01 0.01 0.01 0.01 0.01 0.01 0.05 0.08 0.06 0.06 0.04 0.03 0.02 0.01 0.00 0.00 0.00 0.01 0.01 0.00 0.00 0.00 0.01 0.01 0.01 0.01 0.01 0.01 0.01 0.01 0.01 0.01 0.01 0.01 0.01 0.01 0.00 0.00 0.00 0.00 0.00 0.00
0.00 0.00 0.01 0.01 0.02 0.01 0.02 0.02 0.02 0.01 0.01 0.01 0.03 0.06 0.08 0.06 0.03 0.05 0.07 0.04 0.02 0.01 0.01 0.00 0.00 0.01 0.01 0.01 0.01 0.00 0.00 0.00 0.00 0.00 0.01 0.01 0.01 0.01 0.01 0.01 0.01 0.01 0.01 0.01 0.00 0.01 0.00 0.00 0.00
0.00 0.00 0.00 0.01 0.02 0.02 0.02 0.03 0.02 0.01 0.00 0.01 0.04 0.05 0.03 0.03 0.03 0.09 0.10 0.05 0.02 0.01 0.01 0.01 0.01 0.01 0.01 0.01 0.01 0.01 0.01 0.01 0.01 0.01 0.01 0.02 0.02 0.02 0.02 0.02 0.02 0.02 0.02 0.01 0.01 0.01 0.01 0.01 0.01
0.00 0.00 0.00 0.01 0.03 0.02 0.02 0.01 0.01 0.01 0.00 0.00 0.01 0.03 0.02 0.02 0.03 0.05 0.04 0.03 0.03 0.03 0.03 0.02 0.01 0.02 0.02 0.02 0.01 0.01 0.01 0.01 0.02 0.03 0.04 0.05 0.04 0.03 0.03 0.03 0.03 0.03 0.02 0.03 0.03 0.02 0.02 0.01 0.01
0.00 0.00 0.00 0.01 0.02 0.02 0.02 0.01 0.01 0.01 0.01 0.01 0.01 0.01 0.01 0.01 0.02 0.03 0.02 0.02 0.04 0.05 0.04 0.03 0.02 0.03 0.05 0.03 0.02 0.02 0.02 0.02 0.03 0.05 0.07 0.07 0.04 0.03 0.03 0.03 0.05 0.06 0.06 0.05 0.05 0.04 0.04 0.03 0.02
0.00 0.00 0.00 0.00 0.01 0.02 0.02 0.01 0.01 0.01 0.01 0.03 0.04 0.01 0.01 0.01 0.02 0.03 0.03 0.03 0.05 0.06 0.06 0.05 0.04 0.05 0.08 0.07 0.07 0.06 0.03 0.03 0.03 0.06 0.09 0.07 0.05 0.05 0.06 0.06 0.08 0.09 0.09 0.08 0.07 0.07 0.07 0.05 0.03
0.00 0.00 0.00 0.01 0.02 0.01 0.01 0.01 0.01 0.01 0.01 0.03 0.03 0.02 0.01 0.01 0.04 0.07 0.04 0.02 0.04 0.06 0.06 0.05 0.05 0.08 0.08 0.07 0.07 0.05 0.05 0.05 0.04 0.05 0.06 0.05 0.06 0.08 0.10 0.09 0.09 0.09 0.11 0.09 0.09 0.09 0.07 0.05 0.04
0.00 0.00 0.00 0.01 0.01 0.01 0.01 0.01 0.02 0.01 0.02 0.02 0.03 0.04 0.01 0.01 0.01 0.02 0.02 0.02 0.04 0.05 0.05 0.04 0.05 0.05 0.06 0.06 0.04 0.04 0.04 0.04 0.04 0.03 0.04 0.06 0.09 0.11 0.09 0.06 0.07 0.08 0.10 0.11 0.12 0.13 0.09 0.06 0.05
0.00 0.00 0.00 0.00 0.00 0.01 0.01 0.03 0.03 0.02 0.02 0.01 0.02 0.03 0.01 0.01 0.01 0.01 0.01 0.02 0.03 0.05 0.05 0.05 0.04 0.04 0.05 0.06 0.04 0.04 0.04 0.03 0.03 0.03 0.04 0.07 0.08 0.09 0.08 0.06 0.07 0.07 0.07 0.10 0.11 0.12 0.11 0.07 0.05
0.00 0.00 0.00 0.00 0.00 0.00 0.01 0.01 0.01 0.02 0.01 0.01 0.02 0.02 0.02 0.02 0.01 0.01 0.01 0.01 0.03 0.03 0.04 0.03 0.04 0.05 0.07 0.08 0.08 0.08 0.06 0.05 0.04 0.04 0.04 0.05 0.06 0.07 0.07 0.06 0.06 0.06 0.06 0.09 0.12 0.13 0.11 0.09 0.07
0.00 0.00 0.00 0.00 0.00 0.01 0.01 0.01 0.01 0.01 0.01 0.02 0.02 0.03 0.02 0.02 0.02 0.01 0.01 0.02 0.06 0.05 0.04 0.03 0.05 0.07 0.11 0.14 0.19 0.20 0.14 0.10 0.08 0.06 0.05 0.06 0.07 0.06 0.06 0.06 0.06 0.07 0.07 0.08 0.09 0.12 0.14 0.12 0.12
0.01 0.01 0.01 0.01 0.01 0.01 0.01 0.01 0.01 0.01 0.02 0.04 0.07 0.07 0.06 0.03 0.02 0.02 0.02 0.02 0.02 0.04 0.07 0.06 0.05 0.08 0.15 0.17 0.21 0.19 0.17 0.16 0.10 0.06 0.06 0.06 0.06 0.06 0.04 0.05 0.07 0.08 0.09 0.08 0.08 0.11 0.16 0.14 0.13
0.02 0.01 0.01 0.01 0.01 0.01 0.00 0.01 0.00 0.01 0.03 0.07 0.11 0.13 0.09 0.05 0.03 0.02 0.02 0.02 0.02 0.02 0.05 0.07 0.07 0.09 0.11 0.11 0.12 0.12 0.09 0.10 0.13 0.10 0.08 0.07 0.07 0.07 0.05 0.06 0.07 0.07 0.07 0.06 0.08 0.11 0.14 0.14 0.12
0.00 0.01 0.01 0.01 0.01 0.01 0.00 0.01 0.01 0.02 0.03 0.06 0.06 0.06 0.05 0.03 0.02 0.01 0.01 0.01 0.01 0.02 0.04 0.06 0.09 0.12 0.12 0.13 0.12 0.12 0.13 0.14 0.13 0.12 0.11 0.10 0.08 0.07 0.05 0.04 0.06 0.06 0.06 0.07 0.09 0.10 0.11 0.11 0.11
0.00 0.01 0.00 0.01 0.00 0.00 0.01 0.01 0.01 0.01 0.01 0.02 0.02 0.03 0.03 0.02 0.01 0.01 0.02 0.02 0.02 0.05 0.06 0.07 0.07 0.09 0.12 0.15 0.18 0.19 0.21 0.22 0.21 0.21 0.21 0.14 0.09 0.07 0.05 0.05 0.04 0.04 0.05 0.07 0.07 0.08 0.08 0.08 0.08
0.00 0.00 0.00 0.01 0.01 0.00 0.01 0.01 0.01 0.01 0.01 0.02 0.07 0.09 0.03 0.02 0.03 0.04 0.05 0.05 0.06 0.06 0.06 0.07 0.06 0.06 0.08 0.12 0.18 0.21 0.16 0.16 0.19 0.20 0.20 0.16 0.11 0.08 0.07 0.05 0.04 0.04 0.04 0.06 0.08 0.08 0.06 0.05 0.06
0.00 0.00 0.00 0.01 0.01 0.01 0.03 0.03 0.01 0.02 0.02 0.03 0.06 0.04 0.02 0.02 0.03 0.04 0.06 0.06 0.07 0.05 0.05 0.05 0.05 0.06 0.07 0.08 0.12 0.17 0.16 0.12 0.09 0.09 0.14 0.16 0.15 0.09 0.07 0.07 0.07 0.06 0.06 0.06 0.06 0.06 0.06 0.05 0.05
0.00 0.00 0.00 0.00 0.01 0.01 0.02 0.02 0.02 0.02 0.02 0.03 0.04 0.03 0.03 0.02 0.03 0.05 0.07 0.05 0.05 0.05 0.05 0.05 0.05 0.04 0.04 0.04 0.05 0.07 0.09 0.09 0.08 0.07 0.07 0.10 0.13 0.11 0.08 0.09 0.09 0.08 0.09 0.08 0.07 0.06 0.05 0.06 0.05
0.00 0.00 0.00 0.00 0.00 0.02 0.02 0.03 0.03 0.04 0.03 0.03 0.03 0.05 0.04 0.05 0.05 0.05 0.04 0.04 0.04 0.08 0.09 0.08 0.07 0.06 0.05 0.06 0.06 0.07 0.08 0.07 0.06 0.06 0.06 0.06 0.08 0.12 0.09 0.09 0.08 0.08 0.08 0.08 0.07 0.05 0.05 0.05 0.04
0.00 0.00 0.00 0.00 0.01 0.02 0.02 0.03 0.05 0.05 0.04 0.04 0.04 0.05 0.06 0.08 0.07 0.04 0.03 0.03 0.03 0.07 0.12 0.10 0.08 0.07 0.06 0.08 0.09 0.10 0.09 0.07 0.05 0.05 0.05 0.05 0.08 0.11 0.08 0.07 0.07 0.07 0.06 0.05 0.05 0.06 0.06 0.06 0.05
0.00 0.00 0.01 0.00 0.01 0.02 0.03 0.06 0.08 0.06 0.05 0.05 0.06 0.06 0.05 0.04 0.04 0.04 0.05 0.06 0.03 0.05 0.10 0.11 0.10 0.11 0.12 0.13 0.15 0.13 0.09 0.07 0.05 0.05 0.05 0.06 0.07 0.08 0.07 0.05 0.05 0.05 0.05 0.05 0.06 0.07 0.08 0.07 0.07
0.00 0.01 0.01 0.01 0.02 0.02 0.03 0.06 0.05 0.05 0.05 0.05 0.04 0.04 0.04 0.04 0.05 0.07 0.05 0.04 0.03 0.05 0.07 0.12 0.11 0.13 0.15 0.17 0.17 0.15 0.09 0.09 0.08 0.06 0.06 0.06 0.06 0.06 0.05 0.05 0.04 0.05 0.06 0.07 0.08 0.09 0.10 0.10 0.11
0.01 0.01 0.01 0.01 0.02 0.03 0.04 0.05 0.05 0.05 0.05 0.04 0.05 0.05 0.04 0.04 0.05 0.05 0.04 0.04 0.03 0.03 0.04 0.08 0.09 0.13 0.12 0.15 0.16 0.15 0.12 0.09 0.07 0.05 0.04 0.04 0.06 0.06 0.04 0.05 0.06 0.08 0.09 0.09 0.09 0.11 0.12 0.11 0.11
0.01 0.01 0.01 0.01 0.03 0.04 0.05 0.06 0.05 0.04 0.04 0.03 0.04 0.04 0.04 0.05 0.05 0.03 0.03 0.03 0.03 0.03 0.05 0.08 0.06 0.07 0.06 0.06 0.08 0.06 0.07 0.07 0.06 0.04 0.03 0.03 0.04 0.04 0.05 0.07 0.07 0.07 0.07 0.09 0.11 0.11 0.11 0.10 0.10
0.01 0.01 0.01 0.01 0.02 0.02 0.04 0.04 0.04 0.03 0.03 0.02 0.02 0.03 0.05 0.05 0.04 0.03 0.02 0.03 0.05 0.06 0.06 0.08 0.07 0.07 0.05 0.04 0.03 0.03 0.04 0.06 0.08 0.07 0.05 0.04 0.03 0.04 0.04 0.05 0.05 0.04 0.05 0.06 0.07 0.08 0.09 0.09 0.09
0.00 0.00 0.01 0.01 0.01 0.02 0.03 0.04 0.04 0.04 0.03 0.02 0.02 0.03 0.04 0.06 0.05 0.03 0.03 0.04 0.05 0.07 0.07 0.05 0.06 0.09 0.10 0.06 0.03 0.04 0.05 0.05 0.10 0.07 0.05 0.04 0.03 0.02 0.03 0.04 0.04 0.03 0.02 0.02 0.02 0.03 0.04 0.06 0.06
MSLP
1010.23 1011.27 1012.47 1013.57 1014.35 1014.60 1014.23 1013.24 1011.78 1010.04 1008.30 1006.79 1005.68 1005.03 1004.80 1004.87 1005.09 1005.28 1005.34 1005.22 1004.98 1004.69 1004.48 1004.44 1004.63 1005.05 1005.63 1006.28 1006.89 1007.41 1007.79 1008.06 1008.27 1008.50 1008.80 1009.20 1009.68 1010.20 1010.69 1011.09 1011.36 1011.51 1011.58 1011.61 1011.67 1011.81 1012.05 1012.36 1012.73
1010.74 1011.98 1013.26 1014.31 1014.90 1014.86 1014.14 1012.79 1011.00 1009.01 1007.11 1005.52 1004.39 1003.77 1003.60 1003.72 1003.99 1004.23 1004.34 1004.30 1004.16 1004.02 1003.96 1004.09 1004.44 1004.98 1005.64 1006.32 1006.94 1007.43 1007.79 1008.04 1008.25 1008.50 1008.82 1009.24 1009.73 1010.23 1010.69 1011.05 1011.28 1011.39 1011.43 1011.46 1011.54 1011.69 1011.94 1012.27 1012.64
1011.44 1012.82 1014.10 1015.04 1015.39 1015.05 1013.99 1012.31 1010.25 1008.07 1006.04 1004.41 1003.28 1002.68 1002.53 1002.67 1002.95 1003.20 1003.35 1003.38 1003.35 1003.35 1003.47 1003.78 1004.28 1004.94 1005.68 1006.39 1007.01 1007.47 1007.80 1008.03 1008.22 1008.46 1008.79 1009.20 1009.67 1010.15 1010.58 1010.90 1011.10 1011.21 1011.27 1011.33 1011.44 1011.64 1011.92 1012.26 1012.61
1012.23 1013.65 1014.86 1015.60 1015.70 1015.05 1013.69 1011.77 1009.52 1007.23 1005.17 1003.54 1002.44 1001.86 1001.71 1001.84 1002.09 1002.33 1002.49 1002.58 1002.64 1002.78 1003.05 1003.51 1004.15 1004.91 1005.71 1006.44 1007.04 1007.48 1007.78 1007.98 1008.17 1008.40 1008.71 1009.11 1009.55 1010.00 1010.39 1010.69 1010.89 1011.02 1011.12 1011.23 1011.41 1011.66 1011.97 1012.32 1012.67
1012.97 1014.33 1015.37 1015.87 1015.68 1014.76 1013.18 1011.10 1008.79 1006.51 1004.51 1002.96 1001.93 1001.40 1001.25 1001.35 1001.54 1001.73 1001.86 1001.96 1002.09 1002.32 1002.70 1003.27 1004.01 1004.83 1005.65 1006.38 1006.97 1007.39 1007.67 1007.87 1008.06 1008.30 1008.61 1009.00 1009.42 1009.84 1010.20 1010.48 1010.69 1010.84 1010.99 1011.18 1011.43 1011.74 1012.09 1012.45 1012.78
1013.53 1014.71 1015.49 1015.71 1015.25 1014.12 1012.41 1010.31 1008.06 1005.92 1004.09 1002.70 1001.80 1001.33 1001.18 1001.23 1001.34 1001.45 1001.52 1001.59 1001.72 1001.98 1002.41 1003.03 1003.79 1004.62 1005.43 1006.15 1006.72 1007.13 1007.43 1007.66 1007.89 1008.16 1008.50 1008.90 1009.31 1009.70 1010.03 1010.30 1010.50 1010.69 1010.89 1011.14 1011.46 1011.83 1012.22 1012.59 1012.89
1013.79 1014.70 1015.18 1015.10 1014.41 1013.14 1011.42 1009.42 1007.38 1005.50 1003.94 1002.79 1002.05 1001.66 1001.51 1001.49 1001.50 1001.49 1001.46 1001.45 1001.53 1001.75 1002.16 1002.75 1003.47 1004.26 1005.02 1005.69 1006.24 1006.67 1007.01 1007.32 1007.63 1007.98 1008.39 1008.81 1009.23 1009.61 1009.91 1010.15 1010.35 1010.54 1010.78 1011.08 1011.45 1011.87 1012.29 1012.66 1012.95
1013.73 1014.31 1014.45 1014.10 1013.24 1011.93 1010.31 1008.54 1006.81 1005.29 1004.07 1003.20 1002.65 1002.35 1002.20 1002.10 1001.98 1001.83 1001.66 1001.53 1001.50 1001.64 1001.96 1002.45 1003.07 1003.75 1004.42 1005.04 1005.57 1006.02 1006.44 1006.84 1007.28 1007.75 1008.25 1008.73 1009.18 1009.54 1009.82 1010.03 1010.20 1010.38 1010.63 1010.95 1011.35 1011.79 1012.23 1012.61 1012.90
1013.35 1013.59 1013.44 1012.87 1011.92 1010.67 1009.25 1007.81 1006.46 1005.34 1004.49 1003.91 1003.55 1003.32 1003.15 1002.96 1002.71 1002.41 1002.09 1001.82 1001.66 1001.67 1001.85 1002.19 1002.66 1003.19 1003.74 1004.26 1004.76 1005.24 1005.73 1006.26 1006.84 1007.45 1008.06 1008.62 1009.11 1009.48 1009.73 1009.90 1010.03 1010.19 1010.41 1010.73 1011.13 1011.58 1012.03 1012.42 1012.71
1012.73 1012.69 1012.30 1011.61 1010.66 1009.56 1008.42 1007.35 1006.42 1005.71 1005.21 1004.89 1004.69 1004.51 1004.30 1004.01 1003.63 1003.18 1002.72 1002.32 1002.03 1001.89 1001.91 1002.07 1002.35 1002.69 1003.08 1003.49 1003.92 1004.41 1004.97 1005.60 1006.31 1007.06 1007.79 1008.45 1008.98 1009.36 1009.60 1009.74 1009.83 1009.94 1010.13 1010.42 1010.81 1011.25 1011.70 1012.10 1012.39
1012.02 1011.77 1011.25 1010.52 1009.67 1008.79 1007.97 1007.28 1006.75 1006.41 1006.21 1006.10 1005.99 1005.83 1005.56 1005.17 1004.68 1004.11 1003.54 1003.03 1002.63 1002.35 1002.21 1002.19 1002.26 1002.40 1002.59 1002.85 1003.18 1003.63 1004.21 1004.92 1005.72 1006.58 1007.41 1008.15 1008.74 1009.15 1009.40 1009.51 1009.57 1009.65 1009.80 1010.06 1010.42 1010.84 1011.28 1011.68 1011.99
1011.34 1010.99 1010.44 1009.79 1009.10 1008.48 1007.99 1007.65 1007.47 1007.42 1007.44 1007.44 1007.38 1007.19 1006.85 1006.38 1005.79 1005.15 1004.52 1003.95 1003.47 1003.09 1002.81 1002.61 1002.48 1002.39 1002.37 1002.44 1002.64 1002.99 1003.53 1004.24 1005.09 1006.00 1006.90 1007.70 1008.35 1008.80 1009.08 1009.21 1009.27 1009.33 1009.46 1009.69 1010.02 1010.42 1010.84 1011.23 1011.55
1010.86 1010.51 1010.03 1009.51 1009.05 1008.70 1008.50 1008.46 1008.54 1008.68 1008.81 1008.86 1008.77 1008.52 1008.11 1007.56 1006.92 1006.26 1005.62 1005.03 1004.52 1004.09 1003.70 1003.35 1003.02 1002.72 1002.48 1002.33 1002.33 1002.54 1002.96 1003.60 1004.41 1005.32 1006.25 1007.09 1007.78 1008.29 1008.62 1008.80 1008.90 1008.99 1009.13 1009.35 1009.65 1010.03 1010.43 1010.81 1011.13
1010.68 1010.41 1010.06 1009.73 1009.50 1009.40 1009.45 1009.62 1009.86 1010.09 1010.24 1010.26 1010.09 1009.75 1009.26 1008.66 1008.01 1007.36 1006.75 1006.21 1005.72 1005.26 1004.81 1004.34 1003.85 1003.35 1002.88 1002.50 1002.29 1002.29 1002.54 1003.03 1003.74 1004.57 1005.46 1006.30 1007.03 1007.61 1008.02 1008.29 1008.47 1008.63 1008.81 1009.05 1009.35 1009.71 1010.08 1010.44 1010.76
1010.84 1010.69 1010.51 1010.37 1010.34 1010.45 1010.68 1010.98 1011.29 1011.52 1011.62 1011.54 1011.27 1010.83 1010.27 1009.63 1008.99 1008.39 1007.84 1007.36 1006.92 1006.47 1005.98 1005.43 1004.81 1004.14 1003.47 1002.88 1002.44 1002.22 1002.25 1002.55 1003.08 1003.79 1004.59 1005.40 1006.14 1006.77 1007.28 1007.66 1007.97 1008.23 1008.48 1008.77 1009.09 1009.44 1009.80 1010.14 1010.44
1011.32 1011.29 1011.25 1011.29 1011.43 1011.69 1012.03 1012.39 1012.69 1012.87 1012.86 1012.66 1012.27 1011.73 1011.10 1010.45 1009.83 1009.27 1008.80 1008.38 1007.98 1007.56 1007.06 1006.45 1005.74 1004.95 1004.13 1003.36 1002.72 1002.28 1002.09 1002.17 1002.50 1003.03 1003.70 1004.43 1005.17 1005.85 1006.45 1006.95 1007.39 1007.77 1008.13 1008.48 1008.84 1009.19 1009.54 1009.87 1010.16
1012.01 1012.07 1012.15 1012.32 1012.59 1012.95 1013.34 1013.70 1013.96 1014.04 1013.91 1013.58 1013.07 1012.44 1011.76 1011.09 1010.49 1009.97 1009.54 1009.17 1008.80 1008.39 1007.88 1007.25 1006.49 1005.63 1004.72 1003.84 1003.06 1002.44 1002.05 1001.91 1002.02 1002.36 1002.87 1003.50 1004.19 1004.89 1005.56 1006.18 1006.74 1007.25 1007.71 1008.14 1008.54 1008.92 1009.27 1009.59 1009.87
1012.79 1012.90 1013.06 1013.32 1013.68 1014.09 1014.51 1014.84 1015.02 1015.00 1014.76 1014.31 1013.70 1013.00 1012.27 1011.58 1010.97 1010.46 1010.04 1009.67 1009.30 1008.88 1008.37 1007.73 1006.96 1006.09 1005.17 1004.24 1003.38 1002.65 1002.11 1001.79 1001.71 1001.85 1002.19 1002.69 1003.30 1003.98 1004.69 1005.39 1006.05 1006.66 1007.22 1007.72 1008.16 1008.56 1008.92 1009.25 1009.54
1013.52 1013.64 1013.86 1014.19 1014.60 1015.06 1015.47 1015.77 1015.89 1015.77 1015.43 1014.88 1014.20 1013.43 1012.66 1011.94 1011.31 1010.77 1010.32 1009.90 1009.49 1009.04 1008.50 1007.87 1007.13 1006.30 1005.41 1004.52 1003.66 1002.89 1002.26 1001.81 1001.56 1001.52 1001.69 1002.05 1002.56 1003.19 1003.89 1004.63 1005.35 1006.03 1006.65 1007.20 1007.68 1008.10 1008.48 1008.82 1009.13
1014.11 1014.24 1014.50 1014.88 1015.36 1015.84 1016.26 1016.53 1016.59 1016.40 1015.98 1015.37 1014.62 1013.81 1013.00 1012.24 1011.55 1010.95 1010.42 1009.92 1009.43 1008.92 1008.35 1007.72 1007.02 1006.26 1005.47 1004.66 1003.87 1003.12 1002.47 1001.94 1001.57 1001.39 1001.40 1001.61 1002.01 1002.56 1003.22 1003.95 1004.69 1005.40 1006.05 1006.62 1007.12 1007.55 1007.94 1008.29 1008.63
1014.54 1014.69 1015.00 1015.45 1015.99 1016.52 1016.94 1017.19 1017.21 1016.96 1016.48 1015.81 1015.02 1014.17 1013.32 1012.51 1011.76 1011.07 1010.43 1009.83 1009.23 1008.63 1008.01 1007.38 1006.72 1006.05 1005.36 1004.67 1003.97 1003.30 1002.67 1002.11 1001.67 1001.38 1001.27 1001.35 1001.64 1002.09 1002.69 1003.38 1004.10 1004.80 1005.45 1006.02 1006.51 1006.94 1007.33 1007.69 1008.07
1014.87 1015.06 1015.46 1015.99 1016.60 1017.17 1017.61 1017.84 1017.81 1017.51 1016.97 1016.25 1015.41 1014.53 1013.64 1012.78 1011.96 1011.19 1010.44 1009.71 1009.00 1008.30 1007.62 1006.96 1006.33 1005.72 1005.14 1004.55 1003.96 1003.37 1002.78 1002.23 1001.75 1001.39 1001.19 1001.19 1001.38 1001.76 1002.29 1002.93 1003.62 1004.29 1004.91 1005.46 1005.92 1006.33 1006.70 1007.07 1007.46
1015.22 1015.49 1015.99 1016.62 1017.30 1017.91 1018.35 1018.54 1018.45 1018.07 1017.47 1016.69 1015.81 1014.88 1013.96 1013.06 1012.18 1011.33 1010.48 1009.64 1008.82 1008.02 1007.26 1006.56 1005.92 1005.34 1004.81 1004.30 1003.78 1003.25 1002.71 1002.17 1001.69 1001.30 1001.06 1001.00 1001.14 1001.48 1001.98 1002.59 1003.24 1003.89 1004.47 1004.98 1005.41 1005.78 1006.12 1006.47 1006.85
1015.71 1016.09 1016.70 1017.43 1018.17 1018.79 1019.19 1019.31 1019.13 1018.66 1017.96 1017.11 1016.17 1015.21 1014.25 1013.31 1012.40 1011.49 1010.57 1009.65 1008.73 1007.83 1006.99 1006.22 1005.54 1004.94 1004.40 1003.90 1003.40 1002.89 1002.37 1001.85 1001.37 1000.99 1000.75 1000.69 1000.84 1001.18 1001.68 1002.29 1002.95 1003.58 1004.14 1004.62 1005.01 1005.33 1005.63 1005.94 1006.30
1016.43 1016.94 1017.64 1018.44 1019.20 1019.79 1020.12 1020.14 1019.83 1019.23 1018.41 1017.46 1016.46 1015.44 1014.46 1013.51 1012.58 1011.64 1010.68 1009.70 1008.72 1007.74 1006.81 1005.95 1005.18 1004.51 1003.90 1003.34 1002.81 1002.27 1001.73 1001.21 1000.75 1000.39 1000.19 1000.19 1000.39 1000.79 1001.35 1002.00 1002.69 1003.34 1003.91 1004.37 1004.73 1005.01 1005.26 1005.53 1005.85
1017.42 1018.02 1018.80 1019.62 1020.35 1020.86 1021.07 1020.94 1020.47 1019.71 1018.76 1017.71 1016.62 1015.57 1014.56 1013.61 1012.68 1011.74 1010.78 1009.77 1008.74 1007.70 1006.68 1005.73 1004.85 1004.05 1003.33 1002.66 1002.03 1001.42 1000.84 1000.30 999.85 999.53 999.40 999.48 999.77 1000.28 1000.93 1001.68 1002.44 1003.15 1003.75 1004.22 1004.57 1004.83 1005.04 1005.25 1005.52
1018.60 1019.26 1020.06 1020.85 1021.50 1021.89 1021.94 1021.63 1020.98 1020.06 1018.98 1017.81 1016.66 1015.56 1014.54 1013.59 1012.68 1011.76 1010.81 1009.81 1008.75 1007.67 1006.58 1005.52 1004.52 1003.59 1002.72 1001.92 1001.16 1000.44 999.79 999.21 998.77 998.50 998.44 998.62 999.04 999.67 1000.45 1001.31 1002.17 1002.96 1003.63 1004.14 1004.51 1004.76 1004.95 1005.12 1005.34
1019.84 1020.52 1021.28 1021.99 1022.52 1022.75 1022.62 1022.13 1021.32 1020.25 1019.04 1017.79 1016.57 1015.45 1014.42 1013.48 1012.59 1011.71 1010.78 1009.79 1008.73 1007.61 1006.47 1005.33 1004.22 1003.16 1002.15 1001.20 1000.30 999.48 998.74 998.13 997.69 997.46 997.47 997.75 998.28 999.03 999.93 1000.91 1001.88 1002.76 1003.51 1004.08 1004.50 1004.78 1004.97 1005.14 1005.32
1020.98 1021.63 1022.31 1022.90 1023.27 1023.34 1023.05 1022.40 1021.45 1020.27 1018.98 1017.67 1016.42 1015.28 1014.26 1013.33 1012.46 1011.59 1010.69 1009.71 1008.66 1007.53 1006.36 1005.16 1003.97 1002.81 1001.69 1000.62 999.63 998.71 997.91 997.27 996.82 996.61 996.68 997.03 997.64 998.48 999.47 1000.54 1001.59 1002.56 1003.38 1004.03 1004.51 1004.85 1005.09 1005.27 1005.46
1021.89 1022.47 1023.04 1023.50 1023.72 1023.63 1023.20 1022.44 1021.41 1020.17 1018.85 1017.53 1016.28 1015.14 1014.12 1013.20 1012.33 1011.47 1010.58 1009.61 1008.56 1007.44 1006.26 1005.04 1003.82 1002.61 1001.43 1000.30 999.25 998.28 997.44 996.78 996.33 996.13 996.22 996.60 997.24 998.11 999.14 1000.25 1001.35 1002.37 1003.26 1003.98 1004.54 1004.96 1005.27 1005.51 1005.74
Thickness
5818 5818 5816 5805 5784 5766 5764 5786 5806 5814 5822 5835 5839 5832 5820 5814 5804 5797 5825 5832 5827 5820 5815 5810 5806 5802 5798 5794 5791 5787 5783 5780 5777 5774 5770 5767 5764 5761 5759 5757 5754 5752 5750 5748 5746 5744 5743 5741 5739
5819 5818 5809 5792 5769 5754 5766 5794 5805 5817 5829 5837 5837 5830 5821 5817 5825 5822 5825 5827 5826 5820 5814 5809 5804 5801 5797 5793 5789 5785 5781 5778 5775 5771 5768 5765 5762 5759 5757 5755 5752 5750 5748 5746 5744 5742 5740 5739 5737
5819 5818 5796 5779 5766 5760 5776 5802 5812 5825 5837 5838 5829 5829 5821 5816 5824 5824 5828 5827 5823 5818 5813 5808 5803 5799 5795 5791 5787 5783 5779 5776 5772 5769 5765 5762 5759 5757 5754 5752 5750 5748 5746 5744 5742 5740 5738 5736 5735
5815 5803 5790 5772 5769 5783 5798 5812 5822 5824 5831 5835 5828 5817 5820 5829 5830 5830 5829 5826 5819 5814 5810 5806 5801 5797 5793 5789 5785 5781 5777 5773 5770 5766 5763 5760 5757 5754 5751 5749 5747 5745 5743 5741 5739 5737 5735 5734 5732
5809 5790 5774 5764 5774 5796 5813 5823 5827 5822 5823 5826 5825 5810 5811 5828 5836 5833 5826 5822 5816 5811 5807 5803 5798 5795 5790 5787 5782 5779 5775 5771 5767 5764 5761 5757 5754 5751 5749 5747 5744 5742 5740 5738 5736 5735 5733 5731 5730
5793 5781 5761 5757 5777 5800 5815 5827 5825 5821 5821 5823 5819 5808 5808 5824 5827 5826 5824 5818 5815 5810 5804 5800 5795 5791 5788 5784 5781 5777 5773 5769 5765 5762 5758 5755 5752 5749 5746 5744 5742 5739 5737 5736 5734 5732 5730 5729 5727
5786 5774 5764 5770 5778 5792 5810 5825 5822 5818 5816 5820 5823 5805 5806 5817 5823 5823 5819 5814 5810 5806 5801 5795 5792 5788 5785 5781 5778 5774 5770 5766 5763 5759 5756 5752 5749 5746 5744 5741 5739 5736 5734 5733 5731 5729 5727 5726 5724
5797 5778 5771 5772 5781 5790 5813 5823 5825 5821 5817 5829 5827 5805 5800 5813 5821 5818 5813 5808 5805 5800 5796 5792 5788 5786 5782 5779 5775 5772 5768 5763 5760 5756 5753 5749 5746 5743 5741 5738 5735 5732 5730 5729 5728 5726 5724 5723 5722
5806 5773 5763 5777 5786 5795 5814 5817 5822 5829 5823 5823 5824 5819 5819 5821 5817 5810 5802 5798 5796 5793 5791 5788 5784 5781 5778 5774 5771 5768 5764 5761 5757 5753 5750 5746 5743 5740 5737 5734 5732 5729 5727 5726 5724 5722 5721 5720 5718
5792 5768 5780 5799 5806 5806 5813 5815 5818 5815 5809 5809 5812 5818 5821 5817 5810 5801 5795 5791 5789 5787 5786 5784 5782 5779 5775 5771 5767 5762 5759 5757 5753 5750 5747 5744 5741 5737 5734 5732 5729 5727 5725 5723 5722 5719 5718 5716 5715
5797 5786 5800 5810 5817 5817 5812 5815 5820 5808 5797 5803 5803 5805 5809 5806 5800 5795 5792 5791 5789 5787 5784 5781 5779 5776 5771 5768 5764 5760 5756 5752 5749 5746 5744 5740 5737 5734 5731 5728 5725 5724 5722 5720 5719 5717 5715 5714 5712
5802 5805 5811 5813 5821 5817 5813 5814 5810 5806 5803 5810 5811 5808 5804 5797 5792 5789 5787 5786 5785 5783 5781 5780 5776 5772 5769 5766 5762 5758 5753 5749 5745 5742 5740 5737 5733 5730 5728 5725 5723 5721 5719 5717 5716 5714 5712 5710 5709
5802 5806 5815 5818 5818 5816 5815 5809 5806 5802 5808 5810 5809 5804 5798 5794 5790 5789 5787 5784 5781 5778 5776 5776 5773 5769 5766 5761 5757 5754 5749 5746 5743 5739 5735 5732 5729 5726 5724 5722 5720 5717 5716 5714 5712 5710 5708 5707 5706
5805 5809 5812 5814 5814 5814 5806 5802 5799 5796 5804 5801 5798 5794 5792 5790 5788 5785 5782 5778 5775 5772 5771 5770 5767 5765 5761 5757 5753 5749 5745 5742 5738 5734 5731 5728 5725 5722 5720 5718 5716 5714 5712 5710 5708 5707 5705 5703 5702
5809 5800 5800 5806 5809 5808 5803 5786 5789 5797 5798 5791 5789 5788 5787 5786 5785 5780 5778 5775 5772 5769 5767 5764 5762 5759 5755 5752 5748 5744 5739 5737 5733 5730 5726 5723 5720 5717 5715 5713 5711 5710 5708 5706 5704 5702 5700 5699 5697
5795 5783 5773 5792 5801 5802 5787 5763 5784 5793 5789 5781 5781 5780 5778 5779 5778 5776 5775 5772 5769 5765 5762 5759 5757 5753 5749 5746 5742 5738 5733 5731 5728 5725 5722 5718 5716 5713 5710 5707 5706 5705 5704 5701 5699 5697 5695 5693 5692
5771 5760 5764 5778 5794 5793 5779 5762 5775 5783 5779 5772 5772 5772 5770 5768 5768 5769 5768 5766 5763 5760 5756 5752 5748 5745 5742 5739 5736 5731 5728 5725 5721 5719 5716 5713 5710 5708 5705 5703 5701 5700 5699 5696 5695 5692 5690 5688 5687
5756 5761 5763 5765 5780 5780 5768 5760 5766 5771 5769 5764 5764 5763 5760 5759 5759 5761 5760 5757 5755 5752 5748 5745 5741 5736 5734 5731 5727 5721 5718 5716 5715 5712 5710 5707 5704 5702 5700 5698 5696 5694 5692 5690 5689 5687 5686 5684 5682
5772 5765 5759 5768 5781 5770 5759 5754 5757 5762 5759 5755 5754 5753 5751 5750 5753 5754 5751 5748 5745 5741 5738 5734 5730 5727 5724 5722 5717 5712 5709 5708 5706 5705 5703 5701 5698 5696 5693 5692 5690 5688 5686 5684 5683 5681 5679 5677 5676
5771 5758 5754 5763 5777 5767 5751 5746 5750 5753 5751 5749 5747 5745 5743 5742 5742 5742 5740 5737 5733 5730 5728 5724 5721 5718 5716 5714 5712 5708 5705 5702 5701 5699 5697 5695 5693 5691 5689 5685 5683 5681 5679 5678 5676 5675 5673 5671 5670
5764 5756 5754 5754 5763 5763 5748 5730 5735 5741 5745 5745 5743 5741 5738 5735 5731 5730 5729 5727 5724 5720 5717 5716 5712 5709 5707 5706 5704 5702 5698 5695 5693 5691 5689 5688 5686 5684 5682 5680 5677 5675 5673 5672 5671 5669 5667 5664 5664
5751 5765 5763 5757 5742 5729 5735 5703 5715 5724 5728 5730 5730 5730 5729 5727 5724 5721 5719 5717 5715 5713 5711 5708 5706 5703 5700 5697 5695 5692 5689 5685 5685 5684 5682 5681 5679 5677 5676 5674 5672 5670 5668 5667 5665 5664 5662 5660 5657
5761 5767 5760 5753 5738 5722 5720 5702 5701 5715 5713 5716 5719 5721 5720 5718 5716 5712 5710 5708 5707 5706 5704 5701 5698 5694 5692 5690 5687 5685 5682 5681 5680 5678 5676 5675 5674 5672 5670 5668 5667 5665 5664 5662 5661 5659 5657 5655 5653
5766 5755 5748 5736 5720 5700 5708 5697 5689 5701 5706 5708 5712 5713 5712 5710 5708 5706 5704 5701 5699 5697 5695 5693 5689 5685 5683 5682 5681 5678 5675 5674 5673 5671 5669 5668 5667 5666 5665 5664 5662 5661 5659 5658 5656 5655 5653 5651 5649
5749 5721 5699 5694 5686 5688 5706 5694 5688 5705 5709 5707 5705 5704 5703 5702 5699 5697 5696 5693 5691 5688 5686 5683 5680 5676 5675 5675 5672 5672 5670 5668 5667 5665 5664 5662 5660 5659 5659 5659 5658 5657 5655 5653 5652 5650 5648 5647 5645
5735 5719 5688 5675 5673 5681 5695 5685 5689 5704 5705 5704 5701 5699 5697 5694 5693 5691 5690 5688 5685 5683 5679 5676 5673 5671 5669 5668 5667 5666 5665 5663 5661 5660 5660 5658 5656 5655 5655 5654 5653 5652 5651 5649 5648 5646 5644 5643 5642
5724 5712 5709 5686 5680 5671 5675 5681 5690 5697 5695 5695 5693 5690 5687 5687 5687 5685 5684 5683 5680 5677 5674 5671 5667 5665 5663 5663 5662 5661 5660 5658 5656 5655 5655 5653 5652 5651 5651 5649 5647 5646 5645 5645 5644 5642 5641 5639 5638
5724 5713 5693 5679 5663 5657 5665 5668 5668 5677 5680 5683 5683 5680 5679 5680 5678 5678 5676 5675 5673 5672 5669 5667 5663 5660 5659 5659 5657 5657 5654 5654 5652 5650 5649 5648 5647 5646 5645 5644 5642 5641 5640 5640 5639 5637 5636 5634 5634
5710 5701 5688 5672 5666 5650 5643 5655 5682 5678 5678 5675 5675 5675 5673 5672 5670 5669 5669 5668 5666 5665 5663 5660 5658 5656 5654 5653 5653 5651 5649 5648 5647 5646 5645 5644 5642 5641 5640 5639 5637 5636 5635 5635 5633 5632 5630 5629 5628
5709 5698 5682 5663 5658 5654 5644 5651 5684 5678 5676 5673 5670 5669 5668 5667 5664 5662 5661 5661 5659 5658 5657 5654 5652 5650 5650 5649 5648 5646 5645 5644 5642 5641 5640 5639 5637 5637 5636 5635 5633 5632 5631 5630 5628 5627 5626 5624 5623